RYR108 LIME-LGSK

Flight info

Callsign RYR108
Flight time 1h 51m
Altitude 36000
Route TZO DCT NEVMO DCT LISKO/N0388F180 M730 TORPO/N0456F350 DCT MAVAR DCT TALAS UN130 TSL
Aircraft B738/M-SDE2E3FGHIRWXY/LB1

Departure

Time 2026-04-29 13:46
Airport Il Caravaggio International Airport (LIME)

Arrival

Time 2026-04-29 15:37
Airport Skiathos Island National Airport (LGSK)
Time Latitude Longitude Altitude Speed Heading
2026-04-29 13:35 45.66710 9.69681 778 ft 0 kts 195°
2026-04-29 13:38 45.66715 9.69683 778 ft 2 kts 195°
2026-04-29 13:38 45.66729 9.69689 778 ft 2 kts 195°
2026-04-29 13:39 45.66744 9.69694 778 ft 2 kts 195°
2026-04-29 13:39 45.66758 9.69700 779 ft 2 kts 195°
2026-04-29 13:39 45.66768 9.69703 779 ft 1 kts 195°
2026-04-29 13:39 45.66782 9.69705 779 ft 2 kts 165°
2026-04-29 13:40 45.66796 9.69696 779 ft 2 kts 137°
2026-04-29 13:40 45.66804 9.69679 780 ft 1 kts 109°
2026-04-29 13:40 45.66806 9.69671 780 ft 1 kts 102°
2026-04-29 13:40 45.66806 9.69667 780 ft 0 kts 104°
2026-04-29 13:42 45.66805 9.69675 780 ft 2 kts 104°
2026-04-29 13:42 45.66797 9.69719 779 ft 6 kts 105°
2026-04-29 13:42 45.66782 9.69801 779 ft 10 kts 105°
2026-04-29 13:43 45.66760 9.69918 779 ft 14 kts 105°
2026-04-29 13:43 45.66731 9.70071 778 ft 17 kts 105°
2026-04-29 13:43 45.66697 9.70253 778 ft 20 kts 105°
2026-04-29 13:43 45.66660 9.70460 779 ft 21 kts 103°
2026-04-29 13:44 45.66620 9.70668 777 ft 23 kts 105°
2026-04-29 13:44 45.66574 9.70914 775 ft 26 kts 105°
2026-04-29 13:44 45.66518 9.71191 770 ft 30 kts 109°
2026-04-29 13:44 45.66453 9.71493 764 ft 33 kts 104°
2026-04-29 13:45 45.66473 9.71807 761 ft 31 kts 84°
2026-04-29 13:45 45.66428 9.72116 757 ft 31 kts 104°
2026-04-29 13:45 45.66376 9.72405 754 ft 19 kts 95°
2026-04-29 13:45 45.66455 9.72428 755 ft 13 kts 306°
2026-04-29 13:46 45.66489 9.72279 757 ft 36 kts 284°
2026-04-29 13:46 45.66625 9.71525 767 ft 117 kts 286°
2026-04-29 13:46 45.66900 9.70095 879 ft 172 kts 284°
2026-04-29 13:46 45.67164 9.68478 1665 ft 175 kts 273°
2026-04-29 13:47 45.66799 9.66771 2226 ft 195 kts 228°
2026-04-29 13:47 45.65651 9.65654 2873 ft 207 kts 209°
2026-04-29 13:47 45.64448 9.64393 3257 ft 230 kts 225°
2026-04-29 13:47 45.63359 9.62673 3940 ft 237 kts 229°
2026-04-29 13:48 45.62089 9.61149 4552 ft 246 kts 205°
2026-04-29 13:48 45.60422 9.60856 5302 ft 249 kts 168°
2026-04-29 13:48 45.59222 9.61630 5850 ft 252 kts 144°
2026-04-29 13:48 45.58040 9.63458 6542 ft 256 kts 124°
2026-04-29 13:49 45.57148 9.65674 7248 ft 259 kts 119°
2026-04-29 13:49 45.56298 9.67928 7930 ft 262 kts 119°
2026-04-29 13:49 45.55421 9.70228 8575 ft 266 kts 119°
2026-04-29 13:49 45.54532 9.72570 9255 ft 268 kts 119°
2026-04-29 13:50 45.53652 9.74898 9883 ft 271 kts 119°
2026-04-29 13:50 45.52755 9.77270 10445 ft 279 kts 119°
2026-04-29 13:50 45.51828 9.79716 11212 ft 284 kts 119°
2026-04-29 13:50 45.50851 9.82296 11517 ft 307 kts 119°
2026-04-29 13:51 45.49811 9.85036 11881 ft 326 kts 118°
2026-04-29 13:51 45.48704 9.87955 12102 ft 348 kts 118°
2026-04-29 13:51 45.47521 9.91069 12328 ft 369 kts 118°
2026-04-29 13:51 45.46257 9.94396 12498 ft 389 kts 118°
2026-04-29 13:52 45.44958 9.97807 13113 ft 395 kts 119°
2026-04-29 13:52 45.43633 10.01286 13543 ft 405 kts 119°
2026-04-29 13:52 45.42295 10.04792 14341 ft 405 kts 119°
2026-04-29 13:52 45.40924 10.08378 14791 ft 414 kts 119°
2026-04-29 13:53 45.39555 10.11952 15476 ft 416 kts 119°
2026-04-29 13:53 45.38153 10.15605 15930 ft 423 kts 119°
2026-04-29 13:53 45.36747 10.19265 16520 ft 426 kts 119°
2026-04-29 13:53 45.35308 10.23007 16987 ft 433 kts 119°
2026-04-29 13:54 45.33873 10.26731 17496 ft 437 kts 119°
2026-04-29 13:54 45.32391 10.30574 17976 ft 441 kts 119°
2026-04-29 13:54 45.30908 10.34411 18451 ft 446 kts 119°
2026-04-29 13:54 45.29421 10.38254 18921 ft 450 kts 119°
2026-04-29 13:55 45.27922 10.42123 19366 ft 454 kts 119°
2026-04-29 13:55 45.26386 10.46083 19822 ft 458 kts 119°
2026-04-29 13:55 45.24837 10.50072 20256 ft 462 kts 119°
2026-04-29 13:55 45.23289 10.54050 20678 ft 465 kts 119°
2026-04-29 13:56 45.21722 10.58071 21077 ft 469 kts 119°
2026-04-29 13:56 45.20134 10.62142 21488 ft 473 kts 119°
2026-04-29 13:56 45.18538 10.66227 21847 ft 477 kts 120°
2026-04-29 13:56 45.16933 10.70334 22225 ft 480 kts 120°
2026-04-29 13:57 45.15317 10.74465 22566 ft 483 kts 120°
2026-04-29 13:57 45.13678 10.78642 22919 ft 486 kts 120°
2026-04-29 13:57 45.12040 10.82810 23217 ft 491 kts 120°
2026-04-29 13:57 45.10366 10.87065 23517 ft 494 kts 120°
2026-04-29 13:58 45.08695 10.91305 23806 ft 498 kts 119°
2026-04-29 13:58 45.06993 10.95619 24091 ft 502 kts 119°
2026-04-29 13:58 45.05286 10.99941 24354 ft 506 kts 118°
2026-04-29 13:58 45.03565 11.04297 24647 ft 509 kts 118°
2026-04-29 13:59 45.01823 11.08700 24937 ft 512 kts 118°
2026-04-29 13:59 45.00091 11.13074 25272 ft 514 kts 118°
2026-04-29 13:59 44.98343 11.17482 25545 ft 517 kts 117°
2026-04-29 13:59 44.96583 11.21914 25865 ft 519 kts 117°
2026-04-29 14:00 44.94825 11.26331 26150 ft 521 kts 117°
2026-04-29 14:00 44.93039 11.30814 26404 ft 523 kts 117°
2026-04-29 14:00 44.91248 11.35298 26700 ft 525 kts 117°
2026-04-29 14:00 44.89459 11.39754 27004 ft 526 kts 118°
2026-04-29 14:01 44.87536 11.44156 27310 ft 527 kts 121°
2026-04-29 14:01 44.85509 11.48470 27637 ft 527 kts 121°
2026-04-29 14:01 44.83486 11.52758 27939 ft 528 kts 121°
2026-04-29 14:01 44.81467 11.57065 28264 ft 527 kts 121°
2026-04-29 14:02 44.79475 11.61328 28561 ft 528 kts 121°
2026-04-29 14:02 44.77448 11.65670 28900 ft 528 kts 121°
2026-04-29 14:02 44.75444 11.69972 29212 ft 528 kts 121°
2026-04-29 14:02 44.73419 11.74319 29529 ft 528 kts 121°
2026-04-29 14:03 44.71434 11.78572 29846 ft 528 kts 121°
2026-04-29 14:03 44.69406 11.82913 30154 ft 528 kts 121°
2026-04-29 14:03 44.67402 11.87197 30467 ft 528 kts 121°
2026-04-29 14:03 44.65401 11.91468 30773 ft 527 kts 121°
2026-04-29 14:04 44.63375 11.95783 31086 ft 527 kts 121°
2026-04-29 14:04 44.61364 12.00062 31369 ft 527 kts 121°
2026-04-29 14:04 44.59363 12.04316 31645 ft 527 kts 121°
2026-04-29 14:04 44.57326 12.08639 31938 ft 526 kts 120°
2026-04-29 14:05 44.55321 12.12888 32195 ft 526 kts 120°
2026-04-29 14:05 44.53305 12.17154 32478 ft 526 kts 120°
2026-04-29 14:05 44.51274 12.21444 32726 ft 526 kts 120°
2026-04-29 14:05 44.49261 12.25690 33012 ft 525 kts 120°
2026-04-29 14:06 44.47243 12.29939 33271 ft 525 kts 120°
2026-04-29 14:06 44.45228 12.34178 33521 ft 526 kts 120°
2026-04-29 14:06 44.43202 12.38434 33791 ft 525 kts 120°
2026-04-29 14:06 44.41182 12.42669 34058 ft 525 kts 120°
2026-04-29 14:07 44.39154 12.46916 34341 ft 524 kts 120°
2026-04-29 14:07 44.37141 12.51125 34589 ft 524 kts 120°
2026-04-29 14:07 44.35106 12.55371 34891 ft 523 kts 120°
2026-04-29 14:07 44.33089 12.59573 35126 ft 523 kts 120°
2026-04-29 14:08 44.31066 12.63780 35390 ft 522 kts 120°
2026-04-29 14:08 44.29063 12.67943 35601 ft 522 kts 121°
2026-04-29 14:08 44.27039 12.72150 35828 ft 522 kts 121°
2026-04-29 14:08 44.25008 12.76362 36036 ft 522 kts 121°
2026-04-29 14:09 44.20954 12.84750 36047 ft 526 kts 121°
2026-04-29 14:09 44.16888 12.93124 36046 ft 522 kts 121°
2026-04-29 14:10 44.12811 13.01495 36047 ft 523 kts 120°
2026-04-29 14:10 44.08717 13.09903 36048 ft 527 kts 119°
2026-04-29 14:11 44.04602 13.18362 36047 ft 530 kts 118°
2026-04-29 14:11 44.00483 13.26822 36046 ft 530 kts 118°
2026-04-29 14:12 43.96342 13.35280 36048 ft 530 kts 118°
2026-04-29 14:12 43.92202 13.43679 36047 ft 530 kts 118°
2026-04-29 14:13 43.88058 13.52051 36090 ft 530 kts 118°
2026-04-29 14:13 43.85983 13.56228 36410 ft 527 kts 118°
2026-04-29 14:13 43.83910 13.60399 36586 ft 527 kts 118°
2026-04-29 14:14 43.81824 13.64588 36790 ft 527 kts 118°
2026-04-29 14:14 43.79752 13.68746 36948 ft 528 kts 119°
2026-04-29 14:14 43.77644 13.72979 37124 ft 528 kts 119°
2026-04-29 14:14 43.75577 13.77124 37287 ft 528 kts 119°
2026-04-29 14:15 43.73494 13.81291 37466 ft 528 kts 119°
2026-04-29 14:15 43.71403 13.85461 37678 ft 527 kts 119°
2026-04-29 14:15 43.69327 13.89596 37823 ft 528 kts 119°
2026-04-29 14:15 43.67248 13.93733 37963 ft 528 kts 119°
2026-04-29 14:16 43.63027 14.02102 38050 ft 532 kts 119°
2026-04-29 14:16 43.59083 14.10633 38042 ft 522 kts 108°
2026-04-29 14:17 43.57854 14.15266 38043 ft 505 kts 94°
2026-04-29 14:17 43.57307 14.19947 38059 ft 496 kts 86°
2026-04-29 14:17 43.56939 14.29344 38047 ft 491 kts 82°
2026-04-29 14:18 43.56611 14.38750 38040 ft 499 kts 89°
2026-04-29 14:18 43.55798 14.43440 38045 ft 511 kts 99°
2026-04-29 14:18 43.54630 14.48112 38052 ft 513 kts 102°
2026-04-29 14:19 43.52186 14.57313 38047 ft 513 kts 101°
2026-04-29 14:19 43.49804 14.66600 38045 ft 514 kts 102°
2026-04-29 14:20 43.47340 14.75886 38047 ft 516 kts 103°
2026-04-29 14:20 43.44819 14.85111 38046 ft 516 kts 103°
2026-04-29 14:21 43.42273 14.94268 38047 ft 514 kts 102°
2026-04-29 14:21 43.39719 15.03426 38047 ft 512 kts 101°
2026-04-29 14:22 43.37185 15.12490 38046 ft 507 kts 100°
2026-04-29 14:22 43.34661 15.21454 38045 ft 505 kts 100°
2026-04-29 14:23 43.32110 15.30516 38051 ft 509 kts 100°
2026-04-29 14:23 43.29539 15.39518 38046 ft 507 kts 100°
2026-04-29 14:24 43.26969 15.48485 38046 ft 507 kts 101°
2026-04-29 14:24 43.24390 15.57499 38049 ft 508 kts 101°
2026-04-29 14:25 43.21792 15.66508 38046 ft 509 kts 101°
2026-04-29 14:25 43.19206 15.75451 38044 ft 507 kts 101°
2026-04-29 14:26 43.16605 15.84445 38048 ft 510 kts 101°
2026-04-29 14:26 43.13974 15.93494 38049 ft 512 kts 101°
2026-04-29 14:27 43.11326 16.02517 38045 ft 509 kts 101°
2026-04-29 14:28 43.07389 16.15921 38051 ft 507 kts 101°
2026-04-29 14:28 43.04745 16.24880 38063 ft 509 kts 101°
2026-04-29 14:29 43.02101 16.33806 38071 ft 508 kts 101°
2026-04-29 14:29 42.99453 16.42708 38075 ft 508 kts 101°
2026-04-29 14:30 42.96795 16.51591 38073 ft 505 kts 101°
2026-04-29 14:30 42.94143 16.60445 38075 ft 504 kts 101°
2026-04-29 14:31 42.91501 16.69239 38073 ft 504 kts 101°
2026-04-29 14:31 42.88847 16.78040 38073 ft 504 kts 101°
2026-04-29 14:32 42.86187 16.86813 38076 ft 500 kts 102°
2026-04-29 14:32 42.83524 16.95503 38071 ft 492 kts 102°
2026-04-29 14:33 42.80904 17.04056 38077 ft 491 kts 103°
2026-04-29 14:33 42.78281 17.12602 38060 ft 488 kts 103°
2026-04-29 14:34 42.75665 17.21112 38045 ft 489 kts 103°
2026-04-29 14:34 42.73039 17.29667 38026 ft 492 kts 103°
2026-04-29 14:35 42.70410 17.38188 38019 ft 491 kts 103°
2026-04-29 14:35 42.67771 17.46706 38027 ft 489 kts 103°
2026-04-29 14:36 42.65118 17.55253 38041 ft 489 kts 103°
2026-04-29 14:36 42.62476 17.63736 38059 ft 489 kts 103°
2026-04-29 14:37 42.59818 17.72263 38072 ft 492 kts 104°
2026-04-29 14:37 42.57161 17.80754 38070 ft 491 kts 104°
2026-04-29 14:38 42.54482 17.89275 38075 ft 490 kts 103°
2026-04-29 14:38 42.51817 17.97717 38074 ft 490 kts 104°
2026-04-29 14:39 42.49130 18.06218 38074 ft 491 kts 103°
2026-04-29 14:39 42.46427 18.14703 38074 ft 491 kts 104°
2026-04-29 14:40 42.43737 18.23114 38073 ft 489 kts 104°
2026-04-29 14:40 42.41042 18.31543 38075 ft 490 kts 104°
2026-04-29 14:41 42.38327 18.40014 38077 ft 491 kts 103°
2026-04-29 14:41 42.35619 18.48439 38075 ft 491 kts 103°
2026-04-29 14:42 42.32899 18.56876 38073 ft 491 kts 104°
2026-04-29 14:42 42.30170 18.65309 38073 ft 491 kts 104°
2026-04-29 14:43 42.27435 18.73747 38074 ft 492 kts 104°
2026-04-29 14:43 42.24690 18.82197 38075 ft 493 kts 104°
2026-04-29 14:44 42.21922 18.90660 38074 ft 492 kts 104°
2026-04-29 14:44 42.19166 18.99064 38070 ft 489 kts 105°
2026-04-29 14:45 42.16407 19.07455 38065 ft 488 kts 107°
2026-04-29 14:45 42.13646 19.15764 38056 ft 487 kts 109°
2026-04-29 14:46 42.10892 19.23996 38045 ft 481 kts 110°
2026-04-29 14:46 42.08150 19.32173 38048 ft 480 kts 110°
2026-04-29 14:47 42.05411 19.40362 38048 ft 483 kts 110°
2026-04-29 14:47 42.02642 19.48634 38047 ft 483 kts 109°
2026-04-29 14:48 41.99912 19.56780 38051 ft 482 kts 110°
2026-04-29 14:48 41.97155 19.64981 38059 ft 482 kts 109°
2026-04-29 14:49 41.94389 19.73203 38069 ft 483 kts 110°
2026-04-29 14:49 41.91627 19.81389 38073 ft 484 kts 110°
2026-04-29 14:50 41.88846 19.89598 38074 ft 484 kts 110°
2026-04-29 14:50 41.86062 19.97816 38073 ft 481 kts 110°
2026-04-29 14:51 41.83300 20.05939 38074 ft 483 kts 110°
2026-04-29 14:51 41.80491 20.14182 38074 ft 483 kts 110°
2026-04-29 14:52 41.77716 20.22296 38071 ft 481 kts 110°
2026-04-29 14:52 41.74928 20.30417 38075 ft 481 kts 110°
2026-04-29 14:53 41.72120 20.38565 38075 ft 483 kts 110°
2026-04-29 14:53 41.69295 20.46740 38074 ft 484 kts 110°
2026-04-29 14:54 41.66449 20.54849 38072 ft 483 kts 112°
2026-04-29 14:54 41.63169 20.62654 38074 ft 485 kts 116°
2026-04-29 14:55 41.59821 20.70479 38076 ft 487 kts 116°
2026-04-29 14:55 41.56497 20.78328 38073 ft 486 kts 116°
2026-04-29 14:56 41.53164 20.86181 38073 ft 483 kts 115°
2026-04-29 14:56 41.49867 20.93975 38075 ft 487 kts 117°
2026-04-29 14:57 41.46517 21.01864 38076 ft 492 kts 118°
2026-04-29 14:57 41.43136 21.09763 38072 ft 488 kts 120°
2026-04-29 14:58 41.39797 21.17535 38065 ft 481 kts 120°
2026-04-29 14:58 41.36465 21.25271 38054 ft 482 kts 120°
2026-04-29 14:59 41.33142 21.33001 38052 ft 484 kts 120°
2026-04-29 14:59 41.29794 21.40785 38052 ft 484 kts 120°
2026-04-29 15:00 41.26455 21.48523 38040 ft 482 kts 120°
2026-04-29 15:00 41.23114 21.56254 38016 ft 483 kts 120°
2026-04-29 15:01 41.19782 21.63945 37996 ft 484 kts 120°
2026-04-29 15:01 41.16426 21.71673 38005 ft 483 kts 121°
2026-04-29 15:02 41.13062 21.79404 38025 ft 484 kts 120°
2026-04-29 15:02 41.09708 21.87089 38046 ft 486 kts 121°
2026-04-29 15:03 41.06056 21.94628 38045 ft 484 kts 128°
2026-04-29 15:03 41.01991 22.01706 38048 ft 482 kts 130°
2026-04-29 15:04 40.97977 22.08738 38046 ft 478 kts 131°
2026-04-29 15:04 40.93986 22.15718 38051 ft 472 kts 131°
2026-04-29 15:05 40.90026 22.22630 38057 ft 472 kts 131°
2026-04-29 15:05 40.86077 22.29507 38059 ft 475 kts 131°
2026-04-29 15:06 40.82074 22.36470 38053 ft 474 kts 131°
2026-04-29 15:06 40.78118 22.43341 38056 ft 472 kts 131°
2026-04-29 15:07 40.74133 22.50242 38066 ft 473 kts 131°
2026-04-29 15:07 40.70157 22.57113 38073 ft 474 kts 131°
2026-04-29 15:08 40.66154 22.64018 38074 ft 474 kts 131°
2026-04-29 15:08 40.62163 22.70890 38074 ft 473 kts 131°
2026-04-29 15:09 40.58166 22.77757 38074 ft 474 kts 131°
2026-04-29 15:09 40.54170 22.84608 37902 ft 467 kts 131°
2026-04-29 15:09 40.52210 22.87966 37192 ft 464 kts 131°
2026-04-29 15:10 40.50249 22.91294 36486 ft 452 kts 133°
2026-04-29 15:10 40.48183 22.94361 35780 ft 451 kts 139°
2026-04-29 15:10 40.45883 22.97156 35011 ft 459 kts 145°
2026-04-29 15:10 40.43282 22.99543 34173 ft 457 kts 153°
2026-04-29 15:11 40.40505 23.01467 33335 ft 454 kts 160°
2026-04-29 15:11 40.37581 23.03035 32474 ft 452 kts 162°
2026-04-29 15:11 40.35574 23.04043 31877 ft 451 kts 162°
2026-04-29 15:11 40.32983 23.05356 31088 ft 451 kts 162°
2026-04-29 15:12 40.29409 23.07173 29964 ft 450 kts 162°
2026-04-29 15:12 40.26546 23.08617 29025 ft 450 kts 161°
2026-04-29 15:12 40.23615 23.10089 28034 ft 449 kts 161°
2026-04-29 15:12 40.20720 23.11536 27010 ft 449 kts 161°
2026-04-29 15:13 40.17827 23.12978 25945 ft 449 kts 161°
2026-04-29 15:13 40.14905 23.14430 24836 ft 449 kts 160°
2026-04-29 15:13 40.12004 23.15869 23792 ft 446 kts 160°
2026-04-29 15:13 40.09158 23.17276 23139 ft 435 kts 160°
2026-04-29 15:14 40.06343 23.18666 22388 ft 427 kts 159°
2026-04-29 15:14 40.03576 23.20029 21642 ft 427 kts 159°
2026-04-29 15:14 40.00840 23.21375 20880 ft 425 kts 159°
2026-04-29 15:14 39.98117 23.22713 20121 ft 417 kts 159°
2026-04-29 15:15 39.95420 23.24037 19359 ft 411 kts 159°
2026-04-29 15:15 39.92741 23.25351 18602 ft 415 kts 159°
2026-04-29 15:15 39.90059 23.26666 17823 ft 408 kts 158°
2026-04-29 15:15 39.87468 23.27933 17083 ft 397 kts 158°
2026-04-29 15:16 39.84847 23.29217 16317 ft 405 kts 158°
2026-04-29 15:16 39.82265 23.30480 15570 ft 399 kts 158°
2026-04-29 15:16 39.79682 23.31743 14845 ft 392 kts 158°
2026-04-29 15:16 39.77145 23.32983 14130 ft 393 kts 158°
2026-04-29 15:17 39.74607 23.34224 13396 ft 391 kts 158°
2026-04-29 15:17 39.72108 23.35444 12671 ft 384 kts 158°
2026-04-29 15:17 39.69622 23.36657 11958 ft 380 kts 158°
2026-04-29 15:17 39.67171 23.37851 11457 ft 370 kts 158°
2026-04-29 15:18 39.64843 23.38983 11131 ft 355 kts 158°
2026-04-29 15:18 39.62566 23.40090 10972 ft 337 kts 158°
2026-04-29 15:18 39.60437 23.41123 10808 ft 321 kts 158°
2026-04-29 15:18 39.58413 23.42106 10646 ft 307 kts 158°
2026-04-29 15:19 39.56433 23.43066 10487 ft 295 kts 158°
2026-04-29 15:19 39.54551 23.43979 10336 ft 283 kts 158°
2026-04-29 15:19 39.52758 23.44849 10124 ft 275 kts 158°
2026-04-29 15:19 39.50991 23.45706 9805 ft 271 kts 158°
2026-04-29 15:20 39.49223 23.46563 9455 ft 269 kts 158°
2026-04-29 15:20 39.47477 23.47409 9115 ft 267 kts 158°
2026-04-29 15:20 39.45737 23.48253 8780 ft 272 kts 158°
2026-04-29 15:20 39.43963 23.49112 8431 ft 270 kts 158°
2026-04-29 15:21 39.42214 23.49958 8090 ft 268 kts 158°
2026-04-29 15:21 39.40474 23.50799 7734 ft 266 kts 158°
2026-04-29 15:21 39.38748 23.51634 7394 ft 264 kts 158°
2026-04-29 15:21 39.37030 23.52463 7059 ft 262 kts 158°
2026-04-29 15:22 39.35350 23.53274 6732 ft 260 kts 158°
2026-04-29 15:22 39.33633 23.54103 6402 ft 265 kts 158°
2026-04-29 15:22 39.31921 23.54929 6063 ft 263 kts 158°
2026-04-29 15:22 39.30227 23.55745 5731 ft 261 kts 158°
2026-04-29 15:23 39.28527 23.56564 5397 ft 259 kts 158°
2026-04-29 15:23 39.26854 23.57369 5068 ft 257 kts 158°
2026-04-29 15:23 39.25184 23.58173 4678 ft 257 kts 158°
2026-04-29 15:23 39.23537 23.58965 4335 ft 250 kts 159°
2026-04-29 15:24 39.21940 23.59731 4048 ft 234 kts 159°
2026-04-29 15:24 39.20432 23.60455 3818 ft 234 kts 159°
2026-04-29 15:24 39.18835 23.60844 3583 ft 237 kts 182°
2026-04-29 15:24 39.17299 23.60191 3362 ft 234 kts 215°
2026-04-29 15:25 39.16183 23.58682 3163 ft 234 kts 232°
2026-04-29 15:25 39.15162 23.57063 2943 ft 231 kts 230°
2026-04-29 15:25 39.14178 23.55546 2711 ft 210 kts 230°
2026-04-29 15:25 39.13287 23.54166 2483 ft 190 kts 230°
2026-04-29 15:26 39.12451 23.52869 2278 ft 188 kts 230°
2026-04-29 15:26 39.11634 23.51603 2072 ft 177 kts 230°
2026-04-29 15:26 39.10888 23.50446 1904 ft 163 kts 230°
2026-04-29 15:26 39.10152 23.49296 1743 ft 167 kts 233°
2026-04-29 15:27 39.09772 23.48010 1535 ft 144 kts 274°
2026-04-29 15:27 39.10131 23.46851 1507 ft 144 kts 311°
2026-04-29 15:27 39.10967 23.46163 1317 ft 144 kts 345°
2026-04-29 15:27 39.11948 23.46223 1148 ft 143 kts 22°
2026-04-29 15:28 39.12701 23.47028 951 ft 143 kts 60°
2026-04-29 15:28 39.12925 23.47809 871 ft 141 kts 75°
2026-04-29 15:28 39.13663 23.49151 654 ft 142 kts 21°
2026-04-29 15:28 39.14621 23.49418 524 ft 142 kts
2026-04-29 15:29 39.15612 23.49674 497 ft 151 kts 13°
2026-04-29 15:29 39.16785 23.51906 838 ft 177 kts 89°
2026-04-29 15:30 39.17075 23.55058 1532 ft 189 kts 79°
2026-04-29 15:30 39.17318 23.56712 1876 ft 190 kts 78°
2026-04-29 15:30 39.17771 23.58282 2204 ft 190 kts 50°
2026-04-29 15:30 39.18913 23.59100 2458 ft 193 kts
2026-04-29 15:31 39.20265 23.58776 2263 ft 219 kts 332°
2026-04-29 15:31 39.21450 23.57371 1779 ft 248 kts 298°
2026-04-29 15:31 39.21744 23.55301 1852 ft 228 kts 257°
2026-04-29 15:31 39.20949 23.53569 2049 ft 228 kts 217°
2026-04-29 15:32 39.19617 23.52492 2251 ft 230 kts 215°
2026-04-29 15:32 39.18568 23.50926 2433 ft 231 kts 241°
2026-04-29 15:32 39.17670 23.49232 2470 ft 233 kts 221°
2026-04-29 15:32 39.16339 23.48062 2471 ft 231 kts 210°
2026-04-29 15:33 39.14912 23.47049 2326 ft 245 kts 201°
2026-04-29 15:33 39.13177 23.46807 1823 ft 255 kts 169°
2026-04-29 15:33 39.11511 23.47331 1523 ft 241 kts 166°
2026-04-29 15:33 39.09965 23.47837 1507 ft 216 kts 164°
2026-04-29 15:34 39.08625 23.48218 1511 ft 179 kts 180°
2026-04-29 15:34 39.07613 23.47659 1450 ft 155 kts 236°
2026-04-29 15:34 39.07450 23.46301 1415 ft 164 kts 290°
2026-04-29 15:34 39.08246 23.45313 1340 ft 164 kts 346°
2026-04-29 15:35 39.09350 23.45464 1299 ft 163 kts 19°
2026-04-29 15:35 39.10419 23.45946 1204 ft 154 kts 18°
2026-04-29 15:35 39.11377 23.46381 1106 ft 141 kts 26°
2026-04-29 15:35 39.12172 23.47096 1176 ft 142 kts 38°
2026-04-29 15:36 39.12960 23.47889 1012 ft 144 kts 37°
2026-04-29 15:36 39.13775 23.48635 806 ft 142 kts 27°
2026-04-29 15:36 39.14690 23.49079 634 ft 141 kts 17°
2026-04-29 15:36 39.15622 23.49447 447 ft 137 kts 16°
2026-04-29 15:37 39.16527 23.49843 162 ft 139 kts 18°
2026-04-29 15:37 39.17436 23.50239 43 ft 129 kts 19°
2026-04-29 15:37 39.18013 23.50495 83 ft 75 kts 17°
2026-04-29 15:37 39.18286 23.50618 85 ft 33 kts 18°
2026-04-29 15:38 39.18475 23.50686 77 ft 23 kts 356°
2026-04-29 15:38 39.18491 23.50744 71 ft 6 kts 196°
2026-04-29 15:38 39.18442 23.50699 76 ft 10 kts 214°
2026-04-29 15:38 39.18360 23.50651 81 ft 15 kts 199°
2026-04-29 15:39 39.18236 23.50598 88 ft 21 kts 198°
2026-04-29 15:39 39.18070 23.50522 86 ft 30 kts 200°
2026-04-29 15:39 39.17931 23.50393 86 ft 21 kts 244°
2026-04-29 15:39 39.17807 23.50283 79 ft 20 kts 199°
2026-04-29 15:40 39.17730 23.50216 74 ft 8 kts 226°
2026-04-29 15:40 39.17704 23.50229 70 ft 7 kts 83°
2026-04-29 15:40 39.17747 23.50257 74 ft 7 kts 13°
2026-04-29 15:40 39.17784 23.50254 79 ft 3 kts 312°
2026-04-29 15:41 39.17793 23.50231 81 ft 2 kts 293°
2026-04-29 15:41 39.17797 23.50216 83 ft 2 kts 288°
2026-04-29 15:41 39.17803 23.50193 86 ft 2 kts 288°
2026-04-29 15:41 39.17804 23.50189 86 ft 0 kts 288°